Hlavní strana
METAR-TAF:

METAR-TAF

Letiště :

Blytheville, Arkansas, Spojené státy americké

zeměpisná šířka: 35-58N, zeměpisná délka: 089-57W, výška: 78 m

Aktuální stav počasí

Zpráva byla vytvořena před 8 hodinami a 50 minutami, v 20:50 UTC
Východoseverovýchodní vítr 8 kt
Teplota 17°C
Vlhkost vzduchu 48%
Tlak 1017 hPa
Viditelnost: 16.1 km
Polojasno ve výšce 25000 ft

METAR: KBYH 012050Z 06008KT 10SM SCT250 17/06 A3003

Čas: 00:40 (05:40 UTC)


TAF: chybějící

Stav a předpovědi počasí z více než 4 000 letišť (zprávy METAR a TAF).

Červené a žluté tečky na mapě představují dostupné meteorologické stanice.

Když kurzor umístíte na tečku, zobrazí se název stanice.

Pak kliknutím zobrazíte stav a předpověď počasí.

Chcete-li změnit mapu, kliknutím na zelené tlačítko se znaménkem +mapu přiblížíte, kliknutím na zelené tlačítko se znaménkem – mapu oddálíte a kliknutím na zelené šipky přejdete na sousední mapy.


METAR-TAF: